When you browse on this site, cookies collect data to enhance your experience and personalize the content and advertising you see.
Visit our Privacy Policy to learn more. By continuing to use the site, you agree to this use of cookies and data.
  • In Österreich
  • Länderverzeichnis
  • Für 7 Tage
  • Wassertemperatur
  • Wetterkarte
  • News
  • Widgets
  • user-avatar
    Anmelden

    Stündliche Wetter Hlushyn

    Heute, 24 September, Dienstag

    Zeit Temperatur Niederschläge Wind Luftdruck Luftfeuchtigkeit
    00:00 +5°C° 0 mm 3 m/S 742 mmHg 80%
    01:00 +5°C° 0 mm 3 m/S 742 mmHg 80%
    02:00 +5°C° 0 mm 3 m/S 742 mmHg 81%
    03:00 +5°C° 0 mm 3 m/S 742 mmHg 79%
    04:00 +5°C° 0 mm 3 m/S 742 mmHg 78%
    05:00 +5°C° 0 mm 3 m/S 742 mmHg 76%
    06:00 +7°C° 0 mm 3 m/S 742 mmHg 72%
    07:00 +8°C° 0 mm 3 m/S 742 mmHg 67%
    08:00 +8°C° 0 mm 4 m/S 742 mmHg 62%
    09:00 +11°C° 0 mm 4 m/S 742 mmHg 59%
    10:00 +12°C° 0 mm 4 m/S 742 mmHg 56%
    11:00 +14°C° 0 mm 4 m/S 742 mmHg 53%
    12:00 +16°C° 0 mm 3 m/S 741 mmHg 52%
    13:00 +17°C° 0 mm 3 m/S 741 mmHg 51%
    14:00 +18°C° 0 mm 3 m/S 740 mmHg 49%
    15:00 +18°C° 0 mm 3 m/S 740 mmHg 52%
    16:00 +18°C° 0 mm 2 m/S 740 mmHg 55%
    17:00 +18°C° 0 mm 2 m/S 739 mmHg 58%
    18:00 +16°C° 0 mm 2 m/S 739 mmHg 63%
    19:00 +13°C° 0 mm 3 m/S 739 mmHg 68%
    20:00 +11°C° 0 mm 3 m/S 739 mmHg 73%
    21:00 +10°C° 0 mm 3 m/S 739 mmHg 74%
    22:00 +10°C° 0 mm 3 m/S 739 mmHg 76%
    23:00 +9°C° 0 mm 3 m/S 739 mmHg 77%

    Morgen, 25 September, Mittwoch

    Zeit Temperatur Niederschläge Wind Luftdruck Luftfeuchtigkeit
    00:00 +9°C° 0 mm 3 m/S 739 mmHg 78%
    01:00 +9°C° 0 mm 3 m/S 739 mmHg 80%
    02:00 +8°C° 0 mm 3 m/S 739 mmHg 82%
    03:00 +8°C° 0 mm 3 m/S 739 mmHg 84%
    04:00 +8°C° 0 mm 3 m/S 739 mmHg 87%
    05:00 +8°C° 0 mm 3 m/S 738 mmHg 89%
    06:00 +9°C° 0 mm 3 m/S 738 mmHg 85%
    07:00 +10°C° 0 mm 3 m/S 738 mmHg 82%
    08:00 +11°C° 0 mm 4 m/S 738 mmHg 78%
    09:00 +13°C° 0 mm 4 m/S 738 mmHg 72%
    10:00 +15°C° 0 mm 4 m/S 738 mmHg 67%
    11:00 +18°C° 0 mm 4 m/S 738 mmHg 62%
    12:00 +19°C° 0 mm 4 m/S 738 mmHg 60%
    13:00 +19°C° 0 mm 3 m/S 737 mmHg 58%
    14:00 +20°C° 0 mm 3 m/S 737 mmHg 56%
    15:00 +19°C° 0.1 mm 3 m/S 737 mmHg 60%
    16:00 +19°C° 0.1 mm 2 m/S 736 mmHg 64%
    17:00 +19°C° 0.1 mm 1 m/S 736 mmHg 68%
    18:00 +17°C° 0.1 mm 2 m/S 736 mmHg 73%
    19:00 +16°C° 0.1 mm 2 m/S 736 mmHg 78%
    20:00 +15°C° 0.1 mm 2 m/S 736 mmHg 83%
    21:00 +15°C° 0.1 mm 2 m/S 736 mmHg 85%
    22:00 +14°C° 0.1 mm 1 m/S 736 mmHg 86%
    23:00 +14°C° 0.1 mm 1 m/S 736 mmHg 88%

    übermorgen, 26 September, Donnerstag

    Zeit Temperatur Niederschläge Wind Luftdruck Luftfeuchtigkeit
    00:00 +14°C° 0.1 mm 1 m/S 736 mmHg 89%
    01:00 +14°C° 0.1 mm 1 m/S 736 mmHg 90%
    02:00 +14°C° 0.1 mm 1 m/S 736 mmHg 90%
    03:00 +13°C° 0.1 mm 1 m/S 736 mmHg 91%
    04:00 +13°C° 0.1 mm 1 m/S 736 mmHg 92%
    05:00 +13°C° 0.1 mm 1 m/S 736 mmHg 93%
    06:00 +14°C° 0 mm 2 m/S 736 mmHg 92%
    07:00 +14°C° 0 mm 2 m/S 736 mmHg 91%
    08:00 +14°C° 0 mm 2 m/S 737 mmHg 90%
    09:00 +15°C° 0 mm 2 m/S 737 mmHg 85%
    10:00 +17°C° 0 mm 2 m/S 737 mmHg 80%
    11:00 +18°C° 0 mm 3 m/S 738 mmHg 75%
    12:00 +19°C° 0.2 mm 3 m/S 737 mmHg 72%
    13:00 +19°C° 0.2 mm 3 m/S 737 mmHg 68%
    14:00 +20°C° 0.2 mm 3 m/S 737 mmHg 65%
    15:00 +20°C° 0.3 mm 3 m/S 737 mmHg 67%
    16:00 +19°C° 0.3 mm 3 m/S 737 mmHg 69%
    17:00 +19°C° 0.3 mm 2 m/S 737 mmHg 71%
    18:00 +17°C° 0.1 mm 2 m/S 738 mmHg 77%
    19:00 +16°C° 0.1 mm 2 m/S 738 mmHg 82%
    20:00 +14°C° 0.1 mm 2 m/S 738 mmHg 88%
    21:00 +14°C° 0 mm 2 m/S 738 mmHg 90%
    22:00 +13°C° 0 mm 2 m/S 739 mmHg 91%
    23:00 +13°C° 0 mm 2 m/S 739 mmHg 93%

    27 September, Freitag

    Zeit Temperatur Niederschläge Wind Luftdruck Luftfeuchtigkeit
    00:00 +13°C° 0 mm 2 m/S 739 mmHg 93%
    01:00 +13°C° 0 mm 2 m/S 739 mmHg 93%
    02:00 +13°C° 0 mm 1 m/S 739 mmHg 93%
    03:00 +12°C° 0 mm 1 m/S 740 mmHg 94%
    04:00 +12°C° 0 mm 1 m/S 740 mmHg 94%
    05:00 +12°C° 0 mm 1 m/S 740 mmHg 95%
    06:00 +12°C° 0 mm 1 m/S 740 mmHg 94%
    07:00 +13°C° 0 mm 1 m/S 740 mmHg 93%
    08:00 +13°C° 0 mm 1 m/S 740 mmHg 92%
    09:00 +14°C° 0 mm 1 m/S 741 mmHg 89%
    10:00 +14°C° 0 mm 1 m/S 741 mmHg 87%
    11:00 +15°C° 0 mm 1 m/S 741 mmHg 85%
    12:00 +15°C° 0 mm 1 m/S 741 mmHg 83%
    13:00 +16°C° 0 mm 1 m/S 741 mmHg 82%
    14:00 +16°C° 0 mm 1 m/S 741 mmHg 80%
    15:00 +16°C° 0 mm 1 m/S 741 mmHg 80%
    16:00 +16°C° 0 mm 1 m/S 741 mmHg 80%
    17:00 +16°C° 0 mm 1 m/S 741 mmHg 80%
    18:00 +15°C° 0 mm 1 m/S 741 mmHg 84%
    19:00 +14°C° 0 mm 1 m/S 741 mmHg 87%
    20:00 +13°C° 0 mm 1 m/S 741 mmHg 91%
    21:00 +12°C° 0 mm 1 m/S 742 mmHg 91%
    22:00 +12°C° 0 mm 1 m/S 742 mmHg 91%
    23:00 +12°C° 0 mm 1 m/S 742 mmHg 91%

    28 September, Samstag

    Zeit Temperatur Niederschläge Wind Luftdruck Luftfeuchtigkeit
    00:00 +12°C° 0 mm 1 m/S 742 mmHg 92%
    01:00 +12°C° 0 mm 2 m/S 742 mmHg 92%
    02:00 +12°C° 0 mm 2 m/S 742 mmHg 92%
    03:00 +12°C° 0 mm 2 m/S 742 mmHg 92%
    04:00 +12°C° 0 mm 2 m/S 742 mmHg 92%
    05:00 +12°C° 0 mm 2 m/S 742 mmHg 91%
    06:00 +12°C° 0 mm 2 m/S 742 mmHg 88%
    07:00 +12°C° 0 mm 3 m/S 742 mmHg 85%
    08:00 +13°C° 0 mm 3 m/S 742 mmHg 82%
    09:00 +14°C° 0 mm 3 m/S 742 mmHg 78%
    10:00 +16°C° 0 mm 3 m/S 743 mmHg 74%
    11:00 +17°C° 0 mm 4 m/S 743 mmHg 70%
    12:00 +18°C° 0 mm 3 m/S 743 mmHg 68%
    13:00 +19°C° 0 mm 3 m/S 742 mmHg 65%
    14:00 +20°C° 0 mm 3 m/S 742 mmHg 63%
    15:00 +20°C° 0.2 mm 3 m/S 742 mmHg 65%
    16:00 +19°C° 0.2 mm 2 m/S 742 mmHg 68%
    17:00 +19°C° 0.2 mm 2 m/S 741 mmHg 70%
    18:00 +18°C° 0.4 mm 2 m/S 742 mmHg 76%
    19:00 +17°C° 0.4 mm 2 m/S 742 mmHg 81%
    20:00 +14°C° 0.4 mm 3 m/S 742 mmHg 86%
    21:00 +14°C° 0.4 mm 3 m/S 742 mmHg 86%
    22:00 +14°C° 0.4 mm 3 m/S 742 mmHg 86%
    23:00 +14°C° 0.4 mm 3 m/S 742 mmHg 87%

    29 September, Sonntag

    Zeit Temperatur Niederschläge Wind Luftdruck Luftfeuchtigkeit
    00:00 +14°C° 0.2 mm 3 m/S 742 mmHg 87%
    01:00 +14°C° 0.2 mm 3 m/S 742 mmHg 87%
    02:00 +14°C° 0.2 mm 3 m/S 741 mmHg 87%
    03:00 +14°C° 0.1 mm 3 m/S 741 mmHg 88%
    04:00 +15°C° 0.1 mm 2 m/S 741 mmHg 88%
    05:00 +14°C° 0.1 mm 2 m/S 741 mmHg 88%
    06:00 +15°C° 0 mm 2 m/S 741 mmHg 87%
    07:00 +15°C° 0 mm 2 m/S 741 mmHg 86%
    08:00 +15°C° 0 mm 2 m/S 741 mmHg 85%
    09:00 +17°C° 0 mm 2 m/S 741 mmHg 78%
    10:00 +19°C° 0 mm 2 m/S 741 mmHg 70%
    11:00 +21°C° 0 mm 3 m/S 741 mmHg 63%
    12:00 +21°C° 0.2 mm 3 m/S 741 mmHg 60%
    13:00 +22°C° 0.2 mm 4 m/S 740 mmHg 58%
    14:00 +22°C° 0.2 mm 4 m/S 740 mmHg 55%
    15:00 +22°C° 0.1 mm 3 m/S 739 mmHg 59%
    16:00 +21°C° 0.1 mm 2 m/S 739 mmHg 62%
    17:00 +21°C° 0.1 mm 1 m/S 739 mmHg 65%
    18:00 +19°C° 0 mm 2 m/S 738 mmHg 67%
    19:00 +18°C° 0 mm 2 m/S 738 mmHg 69%
    20:00 +17°C° 0 mm 3 m/S 738 mmHg 71%
    21:00 +16°C° 0 mm 3 m/S 738 mmHg 71%
    22:00 +16°C° 0 mm 3 m/S 738 mmHg 72%
    23:00 +14°C° 0 mm 3 m/S 737 mmHg 73%
    Mehr zeigen